LiveATC.Net - Listen to live air traffic control over the Internet!


ICAO: 6K5  IATA: 6K5   Airport: Sisters Eagle Air Airport
City: Sisters   State/Province: Oregon
Country: United States   Continent: North America
KRDM METAR Weather: KRDM 201356Z 00000KT 10SM CLR M14/M16 A3011 RMK AO2 SLP230 I1000 T11391161
6K5 Flight Activity (FlightAware)
6K5 Webcam:  (Airport Webcams) 
6K5 Airport Info   (AirNav) (iFlightPlanner)
6K5 VFR Sectional Chart   (iFlightPlanner) 
6K5 IFR Low Chart   (iFlightPlanner) 

6K5 CTAF
Feed Status: UP   Listeners: 0
Listen in your browser - HTML5 player (in browser, HTML5)
Listen in your browser - requires Flash (in browser, requires Flash)
Click here to listen with your own player (launches your MP3 player)
6K5 CTAF Audio Archives
FacilityFrequency
Sisters CTAF122.900

NOTICE

Unauthorized use prohibited. See LiveATC.net Terms of Service


Find LiveATC Audio Streams


Airport/ARTCC Code

Frequency Search
(e.g., 124.400, 128.75)
Site-wide search
 


Browse LiveATC Feeds
Top 50 LiveATC Feeds
Bad Weather Areas

LiveATC FAQ
Offer a LiveATC Feed
Contact LiveATC.net
Press Inquiries

LiveATC on iPhone
LiveATC on Android

Windows Phone
Windows 8/10

LiveATC Mobile
(Mobile browser)

ATC Audio Archives
Interesting Recordings

LiveATC Forums


Home Page
About LiveATC.net
Make a Donation
Terms of Use
Privacy Policy

Canadian Air Freqs

AIRMETs/SIGMETs

FAA Airport Status
Nat'l Airspace Status
Arrival Demand Charts


Server Software By:
Icecast.org
Liquidsoap